Wind_Speed
23 19 19 23 24 26 17 15 16 22 26 22 13 15 19 23 24 24 23 26 35 36 32 25 25 30 31 29 25 24 22 18 19 16 9 11 18 22 21 20 22 25 21 8 8 11 10 10 12
16 19 21 24 25 26 22 18 24 24 20 19 18 20 23 22 20 21 23 26 32 35 30 25 23 23 23 22 22 21 19 14 12 8 8 15 21 25 20 21 23 25 26 15 10 11 10 8 6
16 17 21 21 24 28 28 23 22 26 26 24 23 22 18 13 15 21 25 25 29 29 27 21 15 17 20 18 19 11 7 9 6 6 11 16 21 25 22 22 21 24 26 21 14 12 6 3 2
21 22 22 22 24 32 29 26 22 23 26 27 28 25 22 20 20 28 26 27 32 33 25 18 14 16 16 16 11 6 7 5 7 8 13 18 18 22 21 20 20 24 25 23 15 11 10 11 9
28 27 25 23 27 31 33 30 30 29 32 32 31 29 26 22 23 25 25 30 36 36 26 19 17 14 12 10 7 6 5 6 9 11 13 15 20 21 22 20 21 23 24 22 19 16 14 12 10
33 32 33 31 31 30 33 36 35 35 30 32 31 33 31 27 25 27 30 33 40 36 26 21 18 12 7 6 6 3 8 10 11 12 13 17 21 21 21 20 21 23 23 21 19 18 13 13 15
38 37 37 35 34 34 33 33 33 33 31 30 30 31 31 29 29 30 34 43 39 35 24 19 11 4 3 3 3 12 13 14 12 13 14 16 19 19 21 21 24 24 23 22 20 20 20 21 24
39 39 40 40 37 35 37 38 38 38 37 38 33 33 34 34 33 37 46 40 35 31 20 14 5 1 4 8 14 14 14 16 14 12 12 15 17 18 19 22 23 23 24 22 19 17 13 10 14
35 35 36 40 41 40 38 36 36 38 37 35 36 37 39 37 39 46 41 34 30 20 15 6 4 6 12 16 14 14 16 14 14 13 14 15 16 16 18 22 21 21 24 22 19 18 16 15 15
31 32 34 36 37 38 37 36 36 33 31 32 32 37 39 41 42 39 37 25 15 13 3 5 8 14 17 16 14 15 14 14 13 13 15 15 15 16 18 21 21 23 23 22 20 19 18 14 12
18 25 30 33 33 33 32 30 30 32 35 39 42 41 37 40 41 28 11 8 10 4 6 8 15 18 16 14 16 15 12 12 12 13 16 17 18 18 19 19 21 23 24 25 23 21 18 18 15
11 12 18 23 28 31 31 31 33 34 37 40 37 35 29 14 6 4 5 5 6 8 8 12 18 17 16 16 17 13 12 14 14 15 14 17 19 21 20 20 21 22 23 26 26 24 19 18 17
15 13 11 11 16 23 26 27 30 29 25 26 25 20 10 7 5 2 2 5 7 7 8 16 19 17 17 17 15 13 13 15 17 17 18 21 21 22 23 23 26 24 24 23 27 25 23 20 22
18 16 16 13 9 11 13 13 13 16 18 20 12 9 10 10 8 5 4 5 6 7 10 16 18 18 19 17 15 13 14 16 18 18 18 21 23 24 26 26 27 27 28 27 27 28 26 23 24
23 20 18 16 13 12 11 8 8 10 13 10 4 8 12 11 12 9 6 8 6 8 14 17 18 20 20 19 16 15 16 15 15 16 19 22 23 24 25 27 28 29 28 28 28 28 30 29 28
29 25 22 20 17 17 15 11 7 7 7 6 5 9 11 12 12 12 11 7 10 11 18 17 20 22 22 20 17 16 16 15 13 14 17 19 21 23 23 25 27 28 27 29 30 31 31 32 30
35 30 25 23 21 19 18 12 9 8 7 3 6 9 12 12 10 9 15 10 13 14 21 21 20 23 22 21 18 16 16 14 14 15 17 20 20 20 23 23 25 25 26 28 30 32 32 31 31
39 33 30 28 23 20 16 13 12 11 8 4 2 8 12 13 11 10 14 14 14 17 22 22 23 24 22 21 18 16 15 13 13 14 15 17 17 19 21 20 23 24 24 25 27 28 30 32 31
38 34 33 32 27 20 18 18 18 14 12 6 8 10 15 16 12 12 18 18 17 18 22 23 23 22 21 19 17 15 14 13 13 13 13 14 15 17 18 18 18 19 18 19 19 21 24 28 31
41 38 38 35 31 25 22 21 20 16 13 6 9 13 17 17 13 13 22 20 16 20 23 23 22 20 19 17 16 14 14 14 14 11 11 10 10 12 14 14 14 14 17 16 16 18 20 23 24
47 48 47 44 36 31 26 23 21 19 16 9 8 11 15 18 13 14 23 25 21 25 25 23 22 20 17 17 15 13 11 12 12 11 9 7 7 8 9 10 10 10 11 12 14 15 16 18 20
48 52 51 47 40 36 31 28 23 21 19 13 10 12 11 17 17 20 26 28 27 28 27 24 21 18 15 13 12 11 10 9 9 8 7 7 6 5 5 5 5 6 8 10 11 13 15 18 20
47 45 45 51 43 39 34 32 31 26 22 16 13 12 10 17 19 23 27 27 30 29 27 28 25 21 19 17 13 11 8 6 5 4 4 4 4 5 4 4 5 7 9 10 12 14 15 17 19
37 38 41 46 48 37 42 42 34 34 25 20 16 13 15 19 19 26 28 30 30 30 28 28 27 23 19 14 12 11 9 7 5 3 2 2 2 4 4 5 7 8 10 13 14 16 16 18 19
34 35 39 41 44 43 56 46 45 39 31 25 20 16 18 20 19 21 25 27 27 26 25 25 24 21 20 17 13 13 13 11 9 8 7 7 6 5 6 6 8 11 13 15 17 19 19 20 23
35 32 31 40 50 60 55 43 51 44 36 28 23 19 22 24 22 21 26 29 30 29 27 26 26 25 24 21 18 16 15 14 13 12 13 13 12 11 8 10 10 11 13 15 17 19 20 22 25
36 25 36 33 41 49 52 56 50 43 38 33 29 25 24 29 26 25 28 32 33 31 30 27 26 25 23 21 21 18 16 15 14 15 15 15 16 17 16 15 15 16 14 16 19 22 24 25 27
36 37 22 23 30 41 50 58 56 47 43 38 35 31 30 29 31 27 30 31 34 34 33 30 30 27 25 25 24 23 20 18 18 16 13 14 17 22 23 21 20 19 20 20 23 25 27 29 31
46 38 30 27 26 29 43 53 56 53 49 44 41 40 37 33 32 32 29 31 31 31 34 35 35 33 30 28 28 27 24 22 20 19 18 19 22 24 26 28 28 27 25 27 27 30 31 33 34
57 54 45 36 31 33 34 41 46 51 53 50 47 45 42 39 34 32 32 28 28 31 33 36 35 35 33 32 32 31 29 28 27 26 27 27 28 31 30 30 29 30 29 31 34 34 35 36 39
Wind_Direction
215 217 213 197 190 194 204 210 248 241 247 246 271 282 297 308 313 311 311 310 312 307 315 314 297 296 295 297 305 307 314 312 326 342 26 48 35 31 28 27 24 24 29 75 115 148 125 119 110
211 216 212 204 195 205 198 220 228 239 252 247 274 287 295 302 316 318 326 318 313 312 319 316 303 303 306 305 306 306 307 316 341 21 58 45 37 27 25 27 29 32 38 52 95 129 128 125 109
222 222 216 222 220 213 208 212 224 237 249 257 269 288 298 302 315 328 330 325 320 320 321 319 305 310 307 312 316 324 342 341 5 80 55 44 33 26 27 26 29 37 44 53 82 82 114 139 190
219 229 230 224 228 220 228 231 238 236 240 260 279 287 287 295 304 313 324 332 333 331 326 321 303 308 311 320 334 354 344 359 98 70 51 41 22 22 26 27 35 44 47 52 62 54 57 54 51
232 226 227 232 235 228 236 248 256 254 262 266 275 282 277 282 298 313 315 324 330 325 318 319 311 314 314 327 358 360 2 112 101 57 50 28 22 28 29 40 44 49 49 50 49 46 51 54 54
238 233 230 229 235 237 241 247 255 260 268 267 270 282 280 277 294 303 313 317 319 320 315 315 305 304 313 300 352 23 111 108 76 54 35 16 25 30 38 42 46 46 42 40 43 43 43 51 49
240 236 235 236 238 241 244 249 252 258 264 278 289 283 280 277 286 294 305 309 310 313 309 310 299 280 302 12 74 113 108 84 63 46 27 26 33 41 36 37 44 42 39 42 44 49 67 76 62
241 245 242 238 242 245 248 253 258 265 271 277 285 286 281 275 283 295 303 304 303 308 303 299 259 173 112 107 118 113 94 78 60 44 37 35 41 43 34 38 43 41 42 36 34 39 46 38 30
240 245 247 244 244 248 254 261 267 274 280 286 286 283 278 277 280 294 298 298 300 299 300 249 181 140 122 133 116 100 89 72 57 50 44 48 48 36 38 41 46 47 44 39 35 36 27 30 22
238 240 245 249 251 255 259 263 272 274 276 277 275 278 278 279 289 293 301 291 286 298 222 183 149 130 138 135 114 103 82 67 62 61 59 58 45 43 41 57 50 50 50 47 46 47 42 36 26
246 246 245 249 252 255 258 261 264 266 271 274 276 274 275 284 285 291 278 269 277 236 161 158 135 137 140 130 116 99 82 78 72 77 71 59 53 59 63 61 51 52 49 48 50 47 44 46 46
276 262 246 249 252 255 257 260 264 269 270 273 279 279 285 279 269 250 276 249 190 155 155 148 137 143 139 127 112 98 92 83 85 78 75 64 63 66 68 60 54 55 53 52 52 46 45 44 43
268 267 265 255 250 250 252 256 259 262 268 274 278 279 226 201 178 217 197 161 153 149 159 148 146 145 133 121 113 107 100 94 89 89 76 68 67 69 66 62 62 63 55 52 46 45 48 45 35
263 263 264 259 254 242 235 242 257 273 284 278 268 235 196 179 179 191 196 187 169 163 160 157 154 142 130 125 119 109 106 105 95 87 79 72 68 69 62 61 63 61 59 51 52 53 51 47 43
258 262 263 261 258 255 253 263 277 290 293 258 252 205 187 187 194 199 218 206 197 176 165 167 157 143 137 133 124 115 110 112 96 85 79 75 71 70 64 64 65 62 58 57 55 54 53 55 49
253 252 255 257 251 251 252 248 251 288 294 275 202 208 193 194 186 210 224 225 197 179 169 170 158 144 141 135 126 121 111 110 105 92 84 80 76 73 73 68 65 62 58 54 51 52 51 52 51
250 249 253 255 258 254 251 247 243 271 307 334 189 195 197 202 203 212 217 225 189 176 171 170 164 148 146 139 132 126 120 115 108 96 91 86 78 73 72 68 67 64 58 52 50 50 50 49 47
250 251 253 249 249 256 256 254 250 259 280 295 229 197 199 207 229 204 211 207 182 178 176 174 166 154 151 143 137 129 127 125 117 107 99 89 79 70 67 69 64 62 54 51 47 45 44 46 46
252 254 252 248 243 246 248 250 253 257 264 264 214 213 207 213 229 203 202 194 173 185 185 174 169 159 154 148 139 134 133 127 123 119 111 92 79 72 66 63 67 61 55 52 46 43 43 44 44
246 247 243 242 239 236 239 243 249 249 263 258 224 224 229 233 215 206 197 177 176 189 189 178 174 163 158 152 147 139 138 136 133 126 112 92 75 75 73 67 60 53 52 46 45 42 42 43 41
240 235 235 235 234 230 233 237 247 250 252 244 261 244 241 226 191 207 187 171 177 189 186 181 178 170 164 162 156 148 144 145 144 135 120 97 79 72 73 66 58 52 52 41 35 35 28 29 28
239 236 232 233 231 230 229 234 242 247 245 239 256 242 232 219 184 203 191 172 169 185 184 185 182 179 173 165 163 157 159 157 151 142 131 120 105 84 59 51 44 34 42 34 22 16 12 10 19
244 243 239 233 231 233 229 233 234 238 238 232 230 225 218 200 178 184 171 164 175 183 186 185 186 187 181 174 175 174 172 171 162 159 149 113 80 63 53 5 351 360 360 4 6 1 358 1 6
239 237 235 232 230 230 230 230 229 231 231 230 228 216 199 194 172 171 167 176 184 187 191 194 193 194 197 191 190 192 197 203 206 233 287 345 4 356 5 357 343 347 345 349 349 347 349 351 351
235 237 234 227 227 221 232 225 228 228 222 223 222 210 201 201 194 187 183 185 194 197 199 203 206 204 205 207 210 215 218 227 242 255 266 274 284 302 314 317 327 332 342 347 345 339 340 342 345
231 233 235 224 220 222 223 222 226 224 219 221 217 212 205 202 214 199 197 194 197 204 207 208 209 210 214 218 224 227 231 236 244 258 266 273 275 272 282 304 312 320 331 334 337 334 332 336 339
229 221 223 224 225 228 226 228 229 222 219 220 220 212 213 207 211 217 202 202 205 207 211 213 212 217 222 227 231 238 241 236 239 250 259 270 279 280 281 281 291 305 315 322 325 324 325 329 332
229 223 222 219 218 218 221 226 228 219 220 222 221 217 218 217 213 213 212 205 209 210 210 212 213 218 225 229 233 239 243 247 246 244 254 274 288 293 294 289 288 294 305 312 316 321 324 327 329
226 218 207 204 206 212 223 223 227 220 216 218 221 219 218 219 219 216 216 213 213 212 214 215 216 218 221 227 233 239 242 240 243 256 264 272 280 287 290 294 295 299 304 307 311 317 322 323 325
219 217 209 195 203 212 222 229 227 223 218 218 219 221 222 221 218 222 222 218 215 220 221 219 221 226 229 232 234 238 242 245 249 256 264 273 281 284 287 287 289 292 298 302 306 311 314 318 318
Height
11005 11005 11006 11008 11010 11011 11011 11011 11011 11010 11009 11009 11009 11008 11008 11007 11006 11006 11004 11002 10998 10994 10991 10987 10984 10980 10977 10975 10973 10971 10969 10967 10965 10963 10961 10960 10956 10953 10951 10948 10944 10940 10935 10935 10936 10937 10939 10940 10940
11004 11005 11006 11008 11009 11008 11008 11010 11008 11008 11008 11009 11008 11007 11007 11006 11005 11003 11002 10998 10995 10990 10987 10984 10979 10977 10974 10972 10971 10969 10966 10965 10964 10963 10962 10959 10957 10955 10952 10949 10945 10942 10938 10937 10937 10939 10941 10941 10941
11004 11005 11005 11007 11008 11007 11007 11006 11006 11007 11008 11007 11007 11007 11005 11003 11002 10999 10999 10995 10992 10988 10985 10982 10978 10976 10973 10971 10969 10966 10965 10965 10964 10964 10963 10961 10959 10957 10953 10951 10947 10945 10942 10940 10940 10941 10942 10943 10942
11002 11003 11004 11006 11006 11006 11006 11006 11006 11005 11006 11005 11005 11005 11004 11002 10999 10997 10995 10993 10989 10986 10983 10981 10977 10974 10972 10970 10966 10965 10965 10965 10966 10966 10964 10962 10961 10959 10956 10953 10950 10947 10945 10943 10943 10942 10943 10942 10942
10999 11001 11001 11002 11002 11003 11003 11003 11003 11003 11003 11003 11002 11002 11001 10999 10997 10995 10993 10990 10987 10984 10981 10978 10976 10974 10971 10969 10967 10966 10966 10967 10968 10966 10965 10964 10963 10961 10959 10956 10952 10949 10948 10947 10945 10944 10943 10943 10943
10994 10997 10998 10997 10998 10999 10999 11000 11000 11000 11000 10999 10998 10998 10997 10995 10994 10993 10990 10987 10985 10982 10979 10976 10974 10972 10970 10969 10967 10967 10968 10969 10968 10968 10967 10966 10964 10963 10960 10958 10955 10952 10950 10948 10947 10946 10944 10944 10944
10989 10991 10992 10993 10994 10994 10996 10996 10996 10996 10996 10996 10995 10993 10992 10991 10989 10988 10987 10984 10982 10979 10976 10973 10972 10971 10970 10969 10968 10969 10970 10969 10970 10969 10970 10968 10966 10964 10961 10960 10956 10953 10951 10949 10948 10948 10947 10946 10946
10984 10986 10987 10988 10990 10991 10992 10992 10993 10992 10993 10992 10991 10989 10988 10986 10984 10983 10981 10980 10978 10975 10973 10971 10970 10969 10970 10969 10970 10971 10971 10971 10972 10972 10972 10969 10967 10966 10964 10961 10957 10955 10953 10951 10949 10948 10947 10946 10944
10979 10979 10981 10983 10986 10987 10989 10990 10990 10990 10989 10988 10987 10985 10983 10982 10980 10979 10977 10975 10973 10971 10970 10969 10969 10970 10970 10972 10972 10972 10973 10973 10974 10974 10973 10971 10969 10968 10965 10962 10959 10957 10954 10952 10950 10949 10947 10946 10945
10973 10974 10975 10976 10980 10983 10985 10987 10987 10985 10984 10983 10981 10979 10978 10976 10975 10973 10971 10970 10969 10969 10969 10969 10970 10970 10971 10973 10973 10974 10975 10975 10976 10975 10975 10973 10972 10969 10965 10963 10961 10958 10956 10954 10952 10952 10950 10948 10946
10969 10969 10971 10971 10973 10975 10977 10979 10979 10979 10978 10976 10975 10973 10971 10971 10969 10968 10967 10967 10968 10968 10968 10969 10970 10971 10973 10974 10974 10976 10977 10977 10978 10978 10977 10975 10974 10971 10968 10966 10963 10959 10957 10955 10954 10953 10953 10951 10948
10967 10966 10966 10967 10968 10968 10970 10972 10973 10973 10973 10971 10968 10967 10966 10965 10965 10965 10965 10966 10967 10968 10968 10970 10971 10973 10974 10975 10976 10977 10979 10979 10979 10979 10979 10978 10976 10973 10972 10969 10966 10963 10961 10958 10957 10956 10954 10953 10951
10965 10965 10965 10965 10964 10964 10966 10968 10970 10969 10968 10965 10963 10962 10962 10962 10963 10964 10965 10967 10967 10968 10969 10971 10972 10975 10976 10977 10978 10980 10981 10981 10981 10981 10980 10979 10977 10975 10974 10972 10969 10966 10964 10962 10962 10960 10957 10955 10954
10960 10962 10964 10964 10964 10964 10964 10964 10965 10964 10963 10960 10959 10959 10959 10959 10961 10964 10966 10967 10968 10969 10970 10972 10973 10976 10977 10979 10980 10982 10982 10983 10983 10983 10982 10981 10980 10977 10975 10973 10970 10969 10969 10967 10965 10962 10960 10958 10957
10955 10958 10960 10962 10962 10962 10961 10960 10960 10960 10959 10957 10957 10957 10959 10958 10960 10963 10966 10967 10968 10969 10971 10974 10975 10977 10979 10981 10982 10983 10984 10985 10985 10985 10984 10983 10982 10980 10978 10977 10975 10973 10973 10973 10970 10966 10964 10961 10960
10950 10954 10956 10958 10960 10959 10958 10959 10958 10958 10957 10954 10954 10955 10957 10958 10959 10961 10965 10967 10967 10969 10971 10975 10977 10978 10980 10982 10984 10985 10985 10986 10986 10986 10986 10986 10985 10984 10982 10980 10978 10977 10978 10976 10973 10970 10968 10966 10964
10941 10947 10952 10954 10955 10957 10956 10956 10956 10955 10953 10952 10952 10953 10955 10957 10958 10959 10962 10965 10966 10968 10971 10975 10978 10978 10981 10983 10985 10986 10986 10987 10987 10988 10988 10988 10988 10987 10985 10983 10983 10982 10981 10979 10977 10975 10973 10970 10968
10933 10940 10945 10948 10951 10951 10951 10952 10954 10953 10952 10950 10950 10951 10953 10955 10956 10957 10960 10963 10965 10968 10971 10975 10979 10979 10981 10983 10985 10986 10987 10988 10989 10990 10991 10990 10990 10990 10989 10988 10987 10985 10984 10983 10982 10980 10978 10975 10972
10927 10931 10934 10939 10943 10946 10948 10949 10950 10951 10950 10948 10947 10949 10951 10952 10953 10954 10957 10961 10964 10968 10972 10976 10980 10981 10983 10984 10985 10987 10988 10989 10991 10992 10992 10992 10992 10992 10991 10992 10991 10989 10989 10987 10986 10984 10982 10979 10975
10919 10923 10924 10930 10936 10941 10944 10946 10947 10948 10948 10946 10946 10946 10948 10949 10950 10952 10955 10958 10963 10968 10973 10977 10981 10983 10984 10985 10986 10987 10989 10990 10992 10993 10994 10994 10994 10995 10995 10994 10993 10992 10991 10990 10988 10987 10985 10982 10980
10906 10910 10912 10918 10928 10934 10939 10941 10943 10945 10946 10945 10944 10944 10945 10945 10946 10949 10952 10954 10960 10967 10972 10976 10980 10983 10984 10985 10987 10988 10990 10991 10992 10993 10994 10994 10995 10995 10997 10996 10996 10994 10992 10992 10990 10988 10986 10983 10981
10893 10894 10904 10910 10919 10925 10931 10935 10938 10940 10942 10942 10943 10943 10942 10943 10943 10948 10950 10952 10958 10965 10970 10975 10980 10982 10984 10985 10987 10989 10991 10992 10993 10993 10994 10995 10995 10996 10997 10997 10995 10995 10993 10992 10991 10989 10986 10983 10980
10879 10890 10897 10902 10912 10918 10926 10929 10931 10934 10936 10938 10940 10940 10941 10943 10941 10946 10949 10953 10958 10963 10967 10972 10976 10980 10983 10985 10987 10989 10990 10992 10993 10994 10995 10995 10995 10997 10997 10997 10996 10994 10992 10991 10990 10988 10986 10984 10981
10875 10881 10885 10893 10900 10913 10913 10916 10924 10925 10932 10934 10936 10938 10940 10943 10942 10945 10947 10952 10957 10961 10965 10970 10973 10977 10980 10983 10985 10988 10989 10991 10993 10994 10994 10994 10994 10994 10995 10995 10995 10992 10991 10990 10988 10987 10985 10983 10981
10866 10870 10875 10883 10892 10902 10889 10907 10909 10917 10926 10929 10933 10935 10938 10943 10944 10945 10947 10952 10957 10961 10964 10968 10971 10975 10978 10981 10983 10985 10987 10989 10990 10991 10992 10992 10993 10993 10993 10993 10992 10991 10990 10989 10987 10985 10983 10980 10977
10856 10862 10869 10870 10873 10874 10885 10902 10899 10908 10918 10925 10929 10932 10935 10937 10941 10943 10946 10949 10954 10958 10962 10965 10969 10972 10975 10978 10980 10982 10984 10986 10987 10988 10989 10990 10990 10990 10990 10989 10989 10988 10987 10987 10985 10983 10981 10978 10974
10849 10859 10851 10862 10868 10872 10883 10883 10893 10904 10912 10918 10924 10927 10928 10933 10936 10939 10941 10944 10949 10953 10957 10962 10965 10968 10970 10973 10975 10978 10981 10982 10983 10985 10986 10986 10986 10985 10986 10986 10985 10984 10983 10983 10982 10980 10978 10975 10972
10844 10844 10857 10857 10859 10863 10866 10871 10879 10896 10904 10911 10917 10921 10923 10926 10930 10934 10936 10939 10942 10946 10951 10955 10959 10962 10965 10968 10971 10973 10976 10978 10979 10980 10982 10982 10982 10981 10981 10981 10981 10980 10979 10978 10976 10975 10973 10971 10968
10831 10842 10849 10850 10852 10853 10856 10860 10867 10884 10893 10901 10905 10910 10915 10919 10924 10928 10932 10934 10938 10943 10946 10949 10952 10954 10958 10961 10964 10967 10969 10971 10973 10975 10976 10977 10977 10977 10977 10976 10975 10974 10973 10972 10970 10970 10969 10966 10962
10814 10824 10834 10843 10845 10847 10850 10854 10864 10873 10883 10890 10896 10901 10908 10914 10919 10923 10928 10932 10934 10936 10939 10943 10947 10949 10953 10955 10957 10960 10962 10965 10967 10968 10969 10970 10970 10970 10970 10970 10969 10968 10968 10966 10964 10963 10961 10958 10955